Regional Weather Roundup
Issued by NWS Sterling, VA

Home | Current Version | Previous Version | Text Only | Print | Product List | Glossary Off
Versions: 1 2 3 4 5 6 7 8 9 10 11 12 13 14 15 16 17 18 19 20 21 22 23 24 25 26 27 28 29 30 31 32 33 34 35 36 37 38 39 40 41 42 43 44 45 46 47 48 49

000
ASUS41 KLWX 012310
RWRLWX

REGIONAL WEATHER ROUNDUP
NATIONAL WEATHER SERVICE BALTIMORE MD/WASHINGTON DC
700 PM EDT SAT AUG 01 2015

Note: "FAIR" indicates few or no clouds below 12,000 feet
with no significant weather and/or obstructions to visibility.
 TC=TEMPERATURE CELSIUS

 * =Non NWS site. Station does not report precipitation (e.g. rain,
    snow, etc.), thunder, or fog.

DCZ001-MDZ009-015-VAZ040>042-051-053>054-020000-
WASHINGTON METRO

CITY           SKY/WX    TMP DP  RH WIND       PRES   REMARKS
WASHINGTON NAT MOSUNNY   90  63  40 N9        29.84S HX  91
DULLES         SUNNY     86  58  38 NW10      29.85S
ANDREWS AFB    MOSUNNY   85  64  48 W8        29.83F
FT BELVOIR     MOSUNNY   84  69  60 SE5       29.84S
COLLEGE PARK*  PTSUNNY   88  55  33 W6        29.83S
LEESBURG*      SUNNY     86  63  45 NW8G16    29.87S
MANASSAS*      SUNNY     84  66  54 SW3       29.85S
GAITHERSBURG*  MOSUNNY   82  57  42 W7        29.89S

$$

MDZ006>007-011-014-020000-
BALTIMORE METRO

CITY           SKY/WX    TMP DP  RH WIND       PRES   REMARKS
BWI AIRPORT    MOSUNNY   87  58  37 NW7       29.83S
MD SCIENCE CTR   N/A     87  55  33 MISG      29.83S
MARTIN STATE   MOSUNNY   88  61  40 W9        29.84S
ANNAPOLIS      CLOUDY    83  70  64 S3        29.83S
FORT MEADE*    PTSUNNY   77  66  69 CALM      29.86S

$$

MDZ012-015-019>023-020000-
MARYLAND EASTERN SHORE

CITY           SKY/WX    TMP DP  RH WIND       PRES   REMARKS
OCEAN CITY     MOSUNNY   85  72  65 SW9       29.84R HX  91
SALISBURY      SUNNY     85  66  53 SW6       29.84R
BAY BRIDGE AP*   N/A     82  61  47 CALM      29.83S
EASTON*        SUNNY     86  68  54 NW6       29.87S

$$

MDZ017>025-020000-
SOUTHERN MARYLAND

CITY           SKY/WX    TMP DP  RH WIND       PRES   REMARKS
PATUXENT RIVER SUNNY     86  66  51 SW5       29.83S
ST INIGOES     SUNNY     86  66  51 SW6       29.82S
LEONARDTOWN*   MOSUNNY   81  64  57 CALM      29.85S

$$

MDZ003>005-020000-
NORTH CENTRAL MARYLAND

CITY           SKY/WX    TMP DP  RH WIND       PRES   REMARKS
FREDERICK*     SUNNY     88  61  40 NW7       29.87
HAGERSTOWN APT SUNNY     85  52  32 NW10      29.86F
WESTMINSTER*   MOSUNNY   84  55  37 W6        29.87S

$$

MDZ501>502-020000-
WESTERN MARYLAND

CITY           SKY/WX    TMP DP  RH WIND       PRES   REMARKS
OAKLAND*       SUNNY     70  63  78 W8        30.02S
CUMBERLAND*    MOSUNNY   82  52  34 W3        29.93S

$$

VAZ025>031-020000-
SHENANDOAH VALLEY

CITY           SKY/WX    TMP DP  RH WIND       PRES   REMARKS
WINCHESTER*    MOSUNNY   86  52  30 W10       29.88S
FRONT ROYAL*   FAIR      82  57  42 NW5       29.87S
LURAY*         FAIR      88  55  33 NW10G16   29.89S
NEW MARKET*    FAIR      81  56  42 N3        29.88S
STAUNTON*      SUNNY     87  52  29 NW9       29.93S
WAYNESBORO*    FAIR      82  57  42 W5        29.92F

$$

WVZ021-048>050-054>055-020000-
EASTERN WEST VIRGINIA PANHANDLE

CITY           SKY/WX    TMP DP  RH WIND       PRES   REMARKS
MARTINSBURG    SUNNY     84  51  31 W10       29.87S
PETERSBURG*    SUNNY    N/A N/A N/A W5        29.93S

$$

VAZ036>039-050-020000-
CENTRAL FOOTHILLS

CITY           SKY/WX    TMP DP  RH WIND       PRES   REMARKS
CHARLOTTESVILL SUNNY     85  63  47 CALM      29.87S
CULPEPER*      PTSUNNY   81  73  77 CALM      29.86S
ORANGE*        MOSUNNY   86  68  54 CALM      29.88R
GORDONSVILLE*  FAIR      86  66  51 CALM      29.85S
WARRENTON*     FAIR      81  75  80 CALM      29.85S

$$

VAZ055>057-020000-
NORTH AND CENTRAL PIEDMONT

CITY           SKY/WX    TMP DP  RH WIND       PRES   REMARKS
FREDERICKSBRG* SUNNY     88  65  46 N5        29.83S HX  90
STAFFORD*      MOSUNNY   81  70  71 CALM      29.89R

$$

NCZ024-NYZ072-PAZ021-071-VAZ022-071-020000-
OTHER REGIONAL OBSERVATIONS

CITY           SKY/WX    TMP DP  RH WIND       PRES   REMARKS
NEW YORK CITY  MOSUNNY   85  56  37 VRB5      29.81R
PHILADELPHIA   MOSUNNY   88  54  31 W16       29.82S
PITTSBURGH     MOSUNNY   81  53  37 W15       29.91F
ROANOKE        MOSUNNY   85  55  35 NW13      29.94S
RICHMOND       MOSUNNY   88  63  43 SW7       29.84S
RALEIGH        MOSUNNY   89  60  37 E6        29.88S

$$

ANZ530>537-020000-
MARINE OBSERVATIONS

STATION/POSITION TIME  TEMP    WIND        PRES
                       AIR SEA DIR/SP/G
                 (UTC) (F)     (DEG/KT/KT) (MB)
THOMAS PT LIGHT  2300   83 81  180/  2/  2 1010.6F
BALT KEY BRIDGE  2200   86     300/  9/ 11 1009.9S
COVE POINT       2200   88     310/  5/  7 1010.8F
LEWISETTA        2200   89 85  250/  7/  8 1009.7F
SOLOMONS ISLAND  2200      83                N/A
PINEY POINT      2200          260/  3/  5   N/A

$$



USA.gov is the U.S. government's official web portal to all federal, state and local government web resources and services.